Location: Sobotiste
(48.7170°N, 17.4000°E)
Time: 07:04:25
(UTC+02:00)

CAS-6 - Pass Details

Date: 20 March 2026
Orbit: 601 x 618 km, 97.8° (Epoch: 15 April)

Event Time Altitude Azimuth Distance (km) Brightness Sun altitude
Exits shadow 20:18:49 14° 37° (NE) 1,703 ? -22.3°
Drops below altitude 10° 20:20:02 10° 22° (NNE) 1,960 ? -22.5°
Sets 20:22:54 0° 1° (N) 2,872 ? -22.9°
